Location: North Evanston
(42.0634°N, 87.6976°W)
Time: 01:27:24
(UTC+00:00)

Transit 4A - All Passes

Search period start: 12 May 2026 00:00
Search period end: 22 May 2026 00:00
Orbit: 861 x 980 km, 66.8° (Epoch: 11 May)

Date Brightness Start Highest point End Pass type
(mag) Time Alt. Az. Time Alt. Az. Time Alt. Az.
12 May - 00:06:00 10° NW 00:12:13 54° WSW 00:18:21 10° S daylight
12 May - 13:27:02 10° S 13:32:24 34° ESE 13:37:56 10° NE daylight
12 May - 15:12:44 10° SW 15:18:34 44° NW 15:24:36 10° NNE daylight
12 May - 17:04:20 10° NW 17:06:41 12° NNW 17:09:04 10° N daylight
12 May - 20:44:02 10° N 20:46:23 12° NNE 20:48:45 10° NE daylight
12 May - 22:28:27 10° NNW 22:34:34 43° NE 22:40:35 10° ESE daylight
13 May - 00:15:01 10° NW 00:20:49 37° WSW 00:26:32 10° S daylight
13 May - 13:35:09 10° S 13:40:58 49° ESE 13:47:00 10° NE daylight
13 May - 15:22:03 10° WSW 15:27:32 33° NW 15:33:10 10° NNE daylight
13 May - 20:52:04 10° N 20:55:42 15° NNE 20:59:20 10° ENE daylight
13 May - 22:37:05 10° NNW 22:43:27 60° NE 22:49:43 10° SE daylight
14 May - 00:24:15 10° NW 00:29:20 25° WSW 00:34:19 10° SSW daylight
14 May - 12:03:45 10° ESE 12:04:29 10° E 12:05:13 10° E daylight
14 May - 13:43:33 10° SSW 13:49:36 72° ESE 13:55:54 10° NE daylight
14 May - 15:31:36 10° W 15:36:34 25° NW 15:41:40 10° N daylight
14 May - 21:00:21 10° N 21:04:55 20° NE 21:09:27 10° E daylight
14 May - 22:45:47 10° NNW 22:52:15 83° ENE 22:58:36 10° SSE daylight
15 May - 00:33:54 10° WNW 00:37:46 17° WSW 00:41:36 10° SW daylight
15 May - 12:09:09 10° SE 12:12:50 17° ESE 12:16:35 10° ENE daylight
15 May - 13:52:13 10° SSW 13:58:20 81° WNW 14:04:41 10° NNE daylight
15 May - 15:41:26 10° W 15:45:43 19° NW 15:50:04 10° N daylight
15 May - 21:08:46 10° NNW 21:14:02 26° NE 21:19:15 10° E daylight
15 May - 22:54:34 10° NW 23:00:58 71° WSW 23:07:15 10° SSE daylight
16 May - 00:45:05 10° W 00:46:08 10° W 00:47:11 10° WSW daylight
16 May - 12:16:26 10° SSE 12:21:16 25° ESE 12:26:14 10° NE daylight
16 May - 14:01:06 10° SW 14:07:08 57° NW 14:13:22 10° NNE daylight
16 May - 15:51:35 10° WNW 15:54:56 15° NNW 15:58:19 10° N daylight
16 May - 21:17:16 10° NNW 21:23:04 34° NE 21:28:48 10° ESE daylight
16 May - 23:03:28 10° NW 23:09:37 49° WSW 23:15:39 10° S daylight
17 May - 12:24:15 10° S 12:29:46 37° ESE 12:35:28 10° NE daylight
17 May - 14:10:15 10° WSW 14:16:02 41° NW 14:21:59 10° NNE daylight
17 May - 16:02:16 10° NW 16:04:15 11° NNW 16:06:16 10° N daylight
17 May - 19:41:14 10° N 19:43:58 13° NNE 19:46:41 10° NE daylight
17 May - 21:25:51 10° NNW 21:32:01 47° NE 21:38:07 10° SE daylight
17 May - 23:12:32 10° NW 23:18:11 34° WSW 23:23:45 10° S daylight
18 May - 12:32:26 10° S 12:38:21 54° ESE 12:44:28 10° NE daylight
18 May - 14:19:37 10° WSW 14:25:01 30° NW 14:30:33 10° NNE daylight
18 May - 19:49:21 10° N 19:53:14 16° NE 19:57:06 10° ENE daylight
18 May - 21:34:29 10° NNW 21:40:53 65° ENE 21:47:11 10° SE daylight
18 May - 23:21:51 10° NW 23:26:40 23° WSW 23:31:27 10° SSW daylight
19 May - 10:59:44 10° ESE 11:01:47 12° E 11:03:51 10° E daylight
19 May - 12:40:54 10° SSW 12:47:00 79° ESE 12:53:21 10° NNE daylight
19 May - 14:29:14 10° W 14:34:04 23° NW 14:39:01 10° N daylight
19 May - 19:57:41 10° N 20:02:26 21° NE 20:07:08 10° E daylight
19 May - 21:43:12 10° NNW 21:49:40 89° ENE 21:56:01 10° SSE daylight
19 May - 23:31:39 10° WNW 23:35:06 15° WSW 23:38:31 10° SW daylight
20 May - 11:06:07 10° SE 11:10:10 19° ESE 11:14:17 10° ENE daylight
20 May - 12:49:37 10° SW 12:55:45 74° WNW 13:02:06 10° NNE daylight
20 May - 14:39:08 10° WNW 14:43:14 18° NW 14:47:24 10° N daylight
20 May - 20:06:07 10° NNW 20:11:33 28° NE 20:16:53 10° ESE daylight
20 May - 21:52:01 10° NW 21:58:22 65° WSW 22:04:36 10° SSE daylight
21 May - 11:13:33 10° SSE 11:18:37 28° ESE 11:23:47 10° NE daylight
21 May - 12:58:35 10° SW 13:04:35 53° NW 13:10:47 10° NNE daylight
21 May - 14:49:22 10° WNW 14:52:29 14° NNW 14:55:37 10° N daylight
21 May - 18:30:52 10° NNE 18:32:10 11° NNE 18:33:28 10° NE daylight
21 May - 20:14:38 10° NNW 20:20:33 37° NE 20:26:22 10° ESE daylight
21 May - 22:00:58 10° NW 22:07:00 45° WSW 22:12:56 10° S daylight
